Temperature
7 7 7 7 7 7 7 8 9 11 10 11 12 12 11 10 8 7 5 3 2 2 2 2 2 3 3 3 4 4 4 5 5 5 5 6 6 6 6 6 7 6 6 6
6 6 6 6 7 7 7 8 9 9 9 11 11 10 10 9 7 6 4 3 2 1 1 1 1 1 2 2 2 3 3 3 3 4 4 4 5 5 5 5 5 5 5 4
7 7 7 7 8 8 7 8 9 9 10 11 11 11 10 8 7 5 3 2 1 1 1 1 0 0 1 1 1 2 2 2 2 3 3 3 3 3 3 3 3 3 3 2
6 7 6 10 9 8 8 9 9 9 10 11 10 9 8 7 6 4 3 2 1 1 1 0 0 0 0 0 1 1 1 1 1 1 2 2 1 1 1 1 1 1 0 0
7 7 8 9 8 8 8 8 9 9 10 10 9 8 8 6 5 4 3 2 2 1 1 1 1 1 0 0 0 0 0 0 1 0 0 0 1 0 -0 -0 -0 -1 -1 -1
7 7 9 10 9 8 9 10 10 9 10 10 8 10 10 6 5 4 4 3 2 2 2 1 1 1 1 1 1 0 0 0 -0 -0 -0 -0 -0 -0 -1 -1 -1 -1 -1 -1
7 7 9 10 8 8 9 11 10 9 9 9 9 9 7 6 5 5 4 3 3 3 2 2 2 1 1 1 1 0 0 0 0 -0 -0 -0 -0 -0 -1 -1 -1 -1 -1 -2
7 7 8 9 8 9 10 9 9 8 8 8 7 7 6 6 6 5 5 4 4 3 3 2 2 2 2 2 1 1 0 0 0 0 -0 -0 -0 -0 -1 -1 -1 -1 -1 -2
9 9 9 8 9 9 8 8 8 8 8 7 6 6 6 6 5 5 5 4 4 3 3 3 2 2 2 2 1 1 1 1 0 0 -0 -0 -0 -0 -1 -1 -1 -1 -2 -2
8 9 9 8 8 8 8 8 8 8 8 8 7 6 6 6 6 5 5 4 4 4 3 3 3 2 2 2 1 1 1 1 0 0 -0 -0 -0 -1 -1 -1 -2 -2 -3 -3
8 9 8 8 7 7 7 8 8 8 8 8 7 7 6 6 6 6 5 5 4 4 3 3 3 2 2 2 1 1 1 1 0 -0 -0 -1 -1 -1 -2 -2 -2 -3 -4 -4
9 9 9 9 7 7 7 7 7 7 8 8 7 7 6 6 6 5 5 5 4 4 4 3 3 2 2 2 1 0 0 0 -0 -0 -1 -1 -2 -2 -2 -3 -3 -4 -4 -5
7 7 7 7 7 6 6 6 6 7 7 7 7 6 6 6 5 5 5 5 4 4 4 3 3 2 2 1 1 0 0 -0 -0 -1 -1 -2 -2 -3 -3 -4 -4 -5 -5 -6
6 6 6 6 6 6 6 6 6 6 6 6 6 6 5 5 5 4 5 4 4 4 3 3 3 2 2 1 1 0 -0 -0 -1 -1 -2 -2 -3 -3 -4 -4 -5 -5 -6 -7
5 5 5 5 5 5 5 5 5 6 6 6 6 5 5 5 4 4 4 3 3 3 3 3 3 2 2 1 1 0 -0 -1 -1 -2 -2 -2 -3 -3 -4 -5 -5 -6 -7 -7
4 4 4 4 4 4 3 4 4 4 5 5 5 5 4 4 3 3 3 3 3 3 3 3 2 2 1 1 0 -0 -1 -1 -1 -2 -2 -3 -3 -4 -4 -5 -6 -7 -7 -8
3 3 3 3 2 2 2 2 3 3 4 4 4 4 4 3 3 2 2 2 2 2 2 2 2 1 1 0 -0 -1 -1 -1 -2 -2 -2 -3 -3 -4 -5 -6 -6 -7 -8 -8
2 2 1 1 1 1 2 2 2 3 4 4 4 3 3 3 3 2 2 2 1 1 1 1 1 0 -0 -0 -0 -1 -1 -2 -2 -2 -3 -3 -4 -4 -5 -6 -7 -8 -8 -9
1 1 1 1 1 1 2 2 2 3 3 3 3 3 3 2 2 1 1 1 1 1 1 1 0 -0 -0 -1 -1 -1 -1 -2 -2 -2 -3 -3 -4 -5 -6 -7 -8 -8 -9 -9
1 1 1 1 1 1 2 2 2 3 3 3 3 2 2 2 1 1 1 1 1 1 1 0 0 -0 -1 -1 -1 -1 -2 -2 -2 -3 -3 -4 -4 -5 -6 -7 -8 -8 -9 -9
1 1 1 1 1 1 1 2 2 2 2 2 2 2 1 1 1 0 0 1 1 0 0 -0 -0 -0 -1 -1 -1 -2 -2 -2 -2 -3 -3 -4 -5 -6 -7 -7 -8 -8 -9 -9
1 1 1 1 1 1 1 1 1 1 2 2 1 1 1 1 0 0 0 0 0 -0 -0 -0 -0 -1 -1 -1 -2 -2 -2 -2 -3 -3 -4 -4 -5 -6 -7 -7 -8 -8 -8 -9
0 0 1 1 1 1 1 1 1 1 1 1 1 1 0 0 0 0 0 0 -0 -0 -0 -0 -0 -1 -1 -2 -2 -2 -2 -3 -3 -3 -4 -4 -5 -6 -7 -7 -8 -8 -8 -8
0 0 0 0 -0 -0 0 0 0 0 0 0 0 0 0 0 0 0 -0 -0 -0 -0 -0 -1 -1 -1 -2 -2 -2 -2 -3 -3 -3 -3 -4 -5 -5 -6 -6 -7 -7 -8 -8 -8
-0 -0 -0 -0 -0 -0 -0 -1 -1 -1 -0 -0 -0 -0 -0 -0 -0 -0 -0 -0 -1 -1 -1 -1 -2 -2 -2 -2 -2 -3 -3 -3 -3 -4 -4 -5 -5 -6 -6 -7 -7 -7 -7 -7
-1 -1 -1 -1 -1 -1 -1 -1 -1 -1 -1 -1 -1 -1 -1 -1 -1 -1 -1 -1 -1 -1 -1 -2 -2 -2 -2 -2 -3 -3 -3 -3 -4 -4 -4 -5 -5 -6 -6 -7 -7 -7 -7 -7
-2 -2 -2 -2 -2 -2 -2 -2 -2 -2 -2 -2 -2 -2 -2 -2 -2 -2 -1 -1 -1 -1 -1 -2 -2 -2 -2 -3 -3 -3 -3 -4 -4 -4 -5 -5 -6 -6 -6 -6 -7 -7 -7 -7
Wind_Speed
2 2 4 5 9 13 12 9 7 5 5 8 8 9 9 8 8 6 6 6 7 8 8 9 10 10 11 11 11 11 10 10 10 9 8 8 7 7 7 8 8 9 10 10
1 2 3 6 10 13 14 13 13 12 11 11 9 6 7 8 6 5 5 5 6 7 8 9 10 10 10 10 10 10 9 10 10 10 10 10 10 10 10 11 11 11 11 11
2 2 3 8 12 16 10 11 11 13 10 8 8 9 9 7 5 3 3 4 5 6 7 8 8 8 9 9 9 9 9 10 10 10 10 10 10 11 12 11 12 12 12 12
1 2 6 1 2 8 14 14 13 12 12 11 11 11 7 4 2 0 1 2 4 5 6 6 6 7 7 7 8 8 9 9 9 9 10 10 11 11 11 10 11 11 12 12
2 3 6 5 4 6 8 7 13 16 15 13 9 7 4 3 2 2 3 2 3 3 4 4 5 6 6 7 8 8 9 9 9 9 10 10 11 11 10 10 11 10 10 12
4 4 4 1 3 5 5 4 5 10 11 8 4 4 1 7 6 5 4 3 3 3 3 4 5 5 6 8 8 9 8 8 9 9 10 10 10 10 10 10 10 10 11 10
7 6 6 3 4 7 5 4 4 5 6 6 5 4 3 8 7 6 5 4 4 3 3 3 3 5 7 7 7 7 7 8 9 9 9 9 10 9 9 10 10 10 10 8
7 8 7 5 8 7 1 2 1 3 4 5 6 3 5 7 8 8 7 5 5 4 3 2 3 5 6 6 5 6 7 8 9 9 8 8 9 9 8 9 9 8 7 7
8 6 1 5 5 1 1 3 3 3 4 4 5 6 7 8 9 8 8 7 6 5 5 3 3 4 6 5 5 7 8 8 8 8 8 7 8 8 7 6 5 5 5 4
6 7 6 6 5 3 3 4 4 5 5 5 6 6 8 9 9 9 9 8 7 7 6 5 5 5 6 6 6 7 8 8 7 7 7 7 6 5 5 4 4 4 3 3
8 5 4 5 5 2 2 4 4 4 5 6 6 7 9 9 10 10 9 8 8 8 7 7 7 6 6 6 7 8 8 7 6 6 6 6 6 5 5 5 4 3 3 2
7 6 5 4 3 1 3 4 5 5 5 5 6 7 8 9 10 10 10 9 9 8 8 8 8 7 6 6 7 8 7 6 5 5 4 5 5 6 7 6 7 5 3 1
3 3 2 2 1 0 3 6 7 6 6 6 5 6 8 8 9 10 11 11 10 10 9 9 8 8 7 7 6 6 7 6 5 4 4 4 4 3 3 4 5 5 4 2
2 2 3 2 1 5 7 8 7 6 5 5 5 5 7 8 9 11 11 11 10 9 9 9 9 8 7 7 7 7 6 6 5 4 4 3 3 2 2 2 2 1 2 3
3 1 3 4 7 6 6 5 6 6 5 5 5 6 8 9 10 10 10 10 10 9 9 9 9 8 7 8 7 7 6 5 5 4 4 3 3 2 2 2 2 2 2 1
1 3 4 5 6 6 6 6 7 7 6 6 6 7 8 8 8 9 9 11 11 11 10 9 9 8 8 8 8 6 5 7 6 4 4 3 3 3 2 2 2 2 3 3
2 2 2 4 6 7 8 8 9 9 8 7 7 7 7 7 8 9 9 10 9 9 9 9 8 8 8 9 8 6 5 6 7 4 4 3 3 3 2 2 2 3 3 3
3 4 5 7 8 9 10 9 9 9 8 7 6 7 9 10 10 10 9 8 7 7 7 8 8 9 9 8 7 5 5 5 5 4 4 4 3 3 2 2 3 4 4 4
2 4 5 6 7 8 9 9 9 8 6 4 6 8 8 8 8 8 9 10 10 9 9 8 12 10 9 9 8 6 6 6 5 4 4 4 4 3 2 3 3 4 4 4
2 3 4 5 6 6 6 7 7 4 2 3 5 6 6 7 7 8 9 9 8 5 8 10 11 9 9 10 10 6 6 6 5 5 4 4 3 3 3 3 4 4 5 5
3 4 5 5 6 6 6 6 5 3 1 2 4 5 5 6 7 7 8 7 6 6 9 13 10 8 8 9 10 6 6 6 5 5 4 4 3 3 3 4 4 5 5 5
3 4 5 5 6 6 6 6 5 3 2 0 1 3 4 5 6 6 6 4 6 10 9 9 8 10 12 12 7 7 6 6 5 4 4 4 3 3 3 4 4 5 5 6
3 3 4 5 6 5 5 6 6 4 3 1 2 3 4 5 5 5 5 4 5 11 9 8 10 15 17 10 6 7 6 6 5 4 4 4 3 3 4 4 4 5 5 6
2 3 4 5 4 5 6 7 7 5 4 3 2 2 3 3 4 4 2 6 10 12 8 10 16 18 16 7 7 6 6 6 5 4 4 4 3 4 4 4 5 5 6 7
2 2 3 4 4 4 5 6 6 5 5 3 3 1 2 2 3 3 4 5 9 11 7 11 17 18 12 7 7 7 6 6 5 5 4 4 4 4 4 4 5 5 6 6
1 2 2 3 3 3 4 4 4 4 4 4 3 2 1 1 2 2 3 5 7 10 8 7 10 13 9 8 7 7 6 6 6 5 5 4 4 5 4 5 7 6 6 7
1 2 2 2 2 3 3 4 4 4 4 4 5 3 2 2 2 3 3 4 5 6 6 7 8 9 8 7 7 6 6 5 5 5 4 4 4 4 5 6 6 6 6 6
Wind_Direction
98 111 163 201 198 197 207 215 222 237 251 269 291 309 319 327 331 334 348 356 2 2 1 359 1 1 359 355 354 354 1 8 9 8 14 28 40 52 62 75 84 92 96 97
152 171 217 243 227 214 220 228 239 258 275 272 285 297 308 322 324 327 346 358 4 5 2 2 3 2 1 359 359 6 17 22 23 28 37 45 53 63 70 75 81 86 90 95
181 182 265 255 229 212 209 212 219 233 244 272 292 307 318 319 313 322 354 4 7 8 5 4 6 5 4 3 9 21 29 33 35 42 49 53 60 67 72 76 81 85 89 94
168 207 240 219 131 203 217 225 220 236 254 272 289 306 304 289 270 109 55 29 23 16 12 11 13 14 16 21 27 34 38 40 42 49 57 61 66 68 70 74 79 84 87 90
206 256 273 269 199 180 192 230 223 232 253 270 292 294 252 172 152 125 109 78 53 34 23 24 25 26 34 38 39 43 44 45 49 57 64 67 68 68 70 76 76 76 78 82
209 249 249 151 138 173 181 187 181 210 241 266 273 269 196 154 154 141 128 115 94 75 56 45 39 46 56 52 49 47 49 54 58 65 71 72 73 72 71 75 76 76 75 77
219 243 267 234 147 156 194 165 160 213 244 256 243 267 118 149 154 148 141 135 125 112 89 63 63 77 73 65 55 52 60 66 67 69 73 77 78 78 82 84 83 82 82 79
205 223 243 158 159 189 156 61 274 260 256 256 250 215 167 169 164 160 156 155 153 143 126 106 105 106 94 80 78 78 76 73 71 72 77 84 89 89 91 95 95 96 97 93
210 223 359 171 195 208 353 280 276 266 260 254 246 218 194 184 176 172 170 167 167 162 147 134 130 132 117 112 111 104 93 86 84 84 83 88 94 98 97 97 100 103 103 101
235 243 243 241 243 254 270 271 276 271 268 251 244 227 199 187 181 178 177 175 173 171 165 151 143 136 128 129 127 117 107 101 97 94 90 86 82 82 87 89 96 101 103 107
233 243 239 234 209 215 284 289 289 281 260 250 244 226 204 192 186 182 179 177 179 181 172 160 153 144 141 142 139 127 118 112 106 98 97 89 79 70 73 65 60 85 100 111
215 204 201 184 147 279 292 300 305 295 272 248 234 227 205 197 188 182 179 177 181 183 175 166 161 154 153 154 152 141 132 129 122 117 111 109 109 98 77 82 89 84 89 92
197 159 210 254 295 81 316 307 302 285 268 260 240 221 204 195 186 182 180 181 184 183 178 170 166 162 162 164 164 158 149 145 140 141 141 141 140 143 137 105 82 67 47 39
149 173 234 238 265 318 309 301 294 281 267 255 240 216 199 190 184 186 187 184 179 176 176 173 171 168 166 167 165 159 153 151 154 156 160 161 161 168 184 205 216 197 28 8
151 185 275 300 301 301 305 300 288 272 262 251 229 213 198 191 191 190 182 172 167 171 175 176 175 171 168 169 166 162 160 161 161 157 159 161 161 171 185 206 236 253 265 274
220 291 285 283 291 303 306 298 285 278 267 250 233 218 206 199 190 180 174 171 173 180 181 182 182 172 169 169 165 164 167 163 160 160 163 169 178 191 205 222 242 262 276 290
231 253 275 284 294 299 296 290 283 279 271 252 236 213 192 182 179 180 180 181 182 180 180 183 178 167 170 173 171 166 161 164 168 168 178 184 192 203 215 236 259 275 282 291
250 270 276 281 288 293 295 293 286 278 267 254 221 191 187 188 190 186 178 171 166 170 181 180 169 166 171 174 172 164 165 168 176 182 183 188 194 201 220 248 270 281 289 291
268 278 285 287 290 290 290 294 294 287 271 226 194 195 196 196 190 178 170 174 182 190 189 178 172 170 173 177 170 167 169 173 177 182 185 189 189 207 232 257 274 281 286 289
352 331 323 319 318 311 309 312 311 305 277 192 186 188 191 190 177 172 178 191 199 190 169 171 172 174 176 177 172 172 176 180 182 181 184 194 206 224 241 260 273 279 281 281
6 356 350 342 336 338 341 338 337 341 350 177 191 196 192 180 172 173 184 201 195 168 168 172 173 175 175 175 175 175 179 183 184 185 190 198 211 228 246 260 269 274 277 280
3 359 354 347 346 349 352 354 358 357 4 77 181 174 173 176 178 187 203 209 179 176 175 178 178 179 178 173 176 178 181 183 184 185 191 199 212 232 247 258 265 271 274 276
3 358 354 353 348 343 353 4 2 354 342 305 233 205 201 195 187 190 207 202 181 184 182 185 184 181 178 172 176 179 181 185 187 189 192 198 213 231 248 258 264 270 273 276
3 0 355 350 354 4 3 355 350 348 342 327 288 233 205 198 206 210 211 188 189 187 189 190 186 184 177 176 178 181 184 187 187 188 191 198 212 229 244 255 262 267 269 273
346 346 354 359 4 358 345 337 339 350 355 350 343 312 232 215 214 201 195 195 194 190 189 193 190 186 180 178 182 184 186 188 187 186 192 200 214 229 242 251 256 264 268 271
315 330 335 334 330 329 331 334 336 338 340 338 335 326 299 252 219 196 195 199 201 193 186 188 191 189 182 183 184 185 185 188 195 196 197 205 222 233 244 252 260 262 266 269
274 295 311 318 322 326 324 324 325 326 327 323 318 313 301 273 234 212 204 200 202 195 188 190 191 184 180 181 182 182 183 184 189 194 198 209 222 234 245 252 259 264 267 270
Height
1485 1486 1487 1487 1488 1491 1492 1487 1484 1479 1481 1476 1475 1476 1477 1476 1476 1475 1474 1472 1470 1467 1464 1461 1458 1455 1452 1449 1447 1444 1441 1439 1437 1435 1434 1433 1432 1431 1432 1432 1432 1432 1433 1434
1489 1488 1488 1487 1484 1485 1487 1485 1483 1482 1480 1473 1474 1475 1474 1474 1474 1473 1472 1470 1467 1465 1463 1460 1457 1454 1451 1448 1446 1443 1441 1438 1436 1434 1433 1432 1431 1431 1431 1431 1431 1432 1432 1433
1482 1486 1485 1479 1473 1477 1478 1478 1479 1479 1475 1471 1472 1472 1472 1472 1471 1471 1470 1468 1466 1464 1462 1459 1456 1454 1451 1448 1446 1443 1441 1438 1436 1435 1433 1432 1432 1432 1432 1432 1432 1433 1433 1435
1485 1485 1484 1467 1468 1469 1471 1472 1474 1473 1471 1470 1471 1470 1470 1469 1469 1469 1468 1466 1465 1463 1461 1459 1457 1454 1452 1449 1447 1445 1442 1440 1438 1437 1435 1435 1434 1434 1434 1435 1435 1436 1437 1439
1481 1477 1469 1465 1467 1469 1470 1468 1467 1470 1469 1468 1469 1468 1467 1467 1467 1467 1466 1465 1464 1463 1461 1460 1458 1456 1454 1452 1450 1447 1445 1443 1441 1440 1439 1438 1438 1438 1438 1439 1439 1440 1441 1443
1478 1477 1466 1461 1464 1466 1468 1463 1463 1465 1466 1466 1468 1465 1463 1465 1465 1465 1465 1464 1464 1463 1462 1461 1460 1458 1457 1455 1453 1450 1448 1447 1445 1444 1443 1443 1443 1443 1443 1444 1444 1445 1446 1447
1475 1473 1462 1461 1463 1466 1466 1460 1462 1463 1464 1464 1464 1463 1464 1463 1463 1464 1464 1464 1464 1464 1463 1462 1462 1461 1460 1458 1456 1455 1453 1452 1451 1450 1449 1448 1448 1448 1449 1449 1449 1450 1450 1450
1469 1470 1463 1459 1462 1462 1459 1460 1461 1461 1461 1461 1461 1460 1461 1461 1462 1462 1463 1464 1464 1464 1464 1464 1463 1463 1462 1460 1460 1459 1458 1456 1455 1455 1454 1454 1453 1453 1453 1454 1453 1453 1453 1453
1459 1458 1456 1458 1458 1459 1459 1459 1459 1459 1459 1458 1458 1457 1458 1458 1459 1461 1462 1463 1463 1464 1465 1465 1464 1464 1464 1463 1462 1461 1461 1460 1459 1458 1458 1458 1457 1457 1457 1457 1456 1456 1455 1455
1456 1454 1455 1456 1457 1457 1457 1457 1456 1456 1456 1455 1455 1454 1454 1455 1457 1458 1460 1461 1462 1463 1464 1465 1465 1465 1464 1464 1463 1463 1463 1462 1462 1461 1461 1460 1460 1460 1459 1459 1458 1457 1456 1455
1452 1452 1453 1453 1453 1454 1455 1454 1454 1453 1452 1452 1451 1451 1451 1452 1453 1455 1457 1459 1461 1462 1463 1464 1464 1464 1464 1464 1464 1464 1464 1464 1464 1463 1463 1462 1462 1461 1460 1460 1459 1458 1456 1455
1445 1447 1448 1450 1451 1452 1451 1451 1451 1450 1449 1448 1448 1447 1447 1448 1450 1452 1454 1456 1458 1460 1461 1462 1463 1463 1464 1464 1464 1465 1465 1464 1464 1464 1464 1463 1463 1462 1460 1460 1458 1456 1455 1454
1444 1445 1446 1447 1448 1448 1448 1447 1447 1446 1445 1444 1444 1443 1444 1444 1446 1448 1450 1452 1454 1457 1459 1460 1461 1462 1463 1463 1463 1464 1464 1464 1464 1464 1464 1463 1462 1461 1460 1459 1457 1455 1453 1451
1441 1443 1444 1444 1445 1445 1444 1443 1442 1442 1441 1440 1440 1440 1440 1440 1442 1443 1446 1449 1451 1453 1456 1457 1459 1460 1461 1462 1462 1463 1463 1464 1464 1464 1463 1463 1462 1460 1459 1457 1455 1453 1451 1449
1439 1440 1441 1441 1441 1441 1440 1439 1438 1437 1437 1436 1436 1436 1436 1436 1438 1440 1442 1445 1447 1449 1452 1454 1456 1458 1459 1460 1461 1462 1462 1463 1463 1462 1462 1461 1460 1459 1457 1455 1453 1451 1449 1447
1437 1438 1438 1438 1437 1436 1435 1434 1434 1433 1433 1432 1432 1432 1432 1433 1434 1436 1438 1440 1443 1445 1448 1450 1453 1455 1457 1458 1459 1460 1461 1461 1461 1461 1460 1459 1458 1456 1454 1452 1450 1448 1446 1444
1434 1434 1434 1434 1433 1432 1431 1430 1429 1429 1428 1428 1428 1428 1428 1429 1430 1432 1434 1437 1440 1442 1445 1447 1450 1452 1454 1456 1457 1458 1459 1459 1459 1458 1458 1456 1455 1453 1452 1450 1447 1445 1443 1441
1431 1431 1431 1431 1429 1428 1427 1426 1425 1424 1424 1424 1424 1424 1424 1425 1427 1429 1431 1433 1436 1438 1441 1444 1447 1449 1451 1453 1455 1455 1456 1456 1456 1456 1455 1454 1452 1450 1448 1446 1444 1442 1440 1438
1428 1428 1428 1427 1427 1425 1424 1422 1421 1420 1420 1420 1420 1420 1421 1422 1424 1426 1428 1429 1431 1434 1437 1440 1443 1446 1448 1450 1452 1453 1453 1454 1454 1453 1452 1451 1449 1447 1445 1443 1441 1439 1437 1435
1427 1426 1426 1425 1424 1423 1421 1420 1418 1417 1417 1417 1417 1417 1418 1419 1421 1422 1424 1426 1428 1431 1434 1437 1439 1442 1445 1447 1449 1450 1450 1451 1451 1450 1449 1448 1446 1444 1442 1440 1438 1435 1433 1432
1426 1425 1425 1424 1422 1421 1419 1418 1417 1415 1415 1414 1415 1415 1416 1417 1418 1419 1420 1422 1425 1428 1431 1434 1436 1439 1442 1444 1445 1447 1447 1448 1448 1447 1446 1444 1443 1441 1438 1436 1434 1432 1431 1429
1425 1424 1423 1422 1421 1420 1419 1417 1416 1414 1414 1413 1413 1413 1413 1414 1415 1416 1417 1420 1422 1424 1427 1430 1433 1436 1439 1441 1442 1443 1444 1444 1444 1443 1442 1441 1439 1437 1435 1433 1431 1430 1428 1426
1424 1424 1423 1422 1420 1419 1418 1416 1415 1414 1412 1412 1411 1411 1411 1411 1412 1413 1415 1417 1419 1421 1424 1427 1431 1434 1436 1438 1439 1440 1441 1441 1441 1440 1439 1437 1436 1434 1432 1430 1429 1427 1425 1424
1424 1423 1422 1421 1420 1419 1417 1416 1414 1413 1412 1411 1410 1409 1409 1409 1409 1411 1413 1414 1416 1419 1422 1425 1428 1430 1432 1434 1436 1437 1437 1437 1437 1436 1435 1434 1432 1431 1429 1428 1426 1425 1423 1421
1423 1422 1421 1420 1419 1417 1416 1414 1413 1412 1410 1409 1408 1407 1407 1407 1408 1408 1410 1411 1413 1416 1418 1421 1424 1426 1428 1430 1432 1433 1433 1434 1433 1433 1432 1430 1429 1428 1427 1425 1424 1422 1421 1419
1422 1421 1420 1419 1418 1416 1415 1413 1412 1410 1409 1408 1407 1406 1405 1405 1405 1406 1407 1408 1410 1412 1414 1417 1419 1422 1424 1426 1427 1429 1429 1430 1429 1429 1428 1427 1426 1425 1424 1423 1422 1420 1418 1416
1420 1419 1418 1417 1416 1415 1413 1412 1410 1409 1407 1406 1405 1404 1403 1403 1403 1403 1404 1405 1406 1408 1410 1412 1414 1417 1419 1422 1423 1424 1425 1425 1425 1425 1425 1424 1423 1422 1421 1420 1419 1417 1415 1413